Погода Мыс Шведский

Погода Мыс Шведский : погода сейчас, прогноз погоды и архив. Всё, что Вы хотите узнать о погоде Мыс Шведский!

Хотите узнать прогноз погоды Мыс Шведский? Тогда Вам сюда: Погода Мыс Шведский

Поиск расширенной информации на нашем сайте:

Другие новости

Новости СМИ2

Главная страница сайта

Новости сайта

03.07.2017

Напоминаем, что на нашем специализированном сайте Метеоцентр.Азия вы можете получить высокодетализированные автоматические прогнозы погоды по пунктам России, СНГ и мира в авиационном формате (включающие направление и скорость ветра, видимость, явления погоды, количество и форму облачности, нижнюю и верхнюю границу облачности).

Рекомендуем: Радуга бисера кроше наборы для вышивания бисером иконы.

Погода Мыс Шведский - сегодня

Время (UTC), дата Ветер
(°,м/с) 
Видим.   Явления Облачность Т
(°С)
Тd
(°С)
f(%) Тe
(°С)
Pmin
(гПа)
dP
(гПа)
Po
(мм)
O2
(г/м3)
Тmin Tmax R s Состояние
почвы
15 19.08.17 740 () 20000 м    8/0 верхняя 
[Cs]
+9.1 +5.3 77 +7  1017.5  -1.4  763  297    +9.5       
18 19.08.17 110 (В) 10 км    9/4 1000 м верхняя 
[Sc|Cs]
+5.5 +3.8 89 +4  1016.8  -0.7  762  300           
00 20.08.17 160 (Ю) 10 км    8/5 600 м верхняя 
[Sc|Cs]
+6.9 +5.6 91 +6  1013.3  -1.8  759  298           
06 20.08.17 170 (Ю) 10 км    10/10 300 м 
[Sc]
+12.6 +10.9 89 +14  1010.8  -1.3  758  290           
09 20.08.17 220 (ЮЗ) 10 км    10/10 300 м 
[Sc]
+12.3 +11.5 95 +15  1009.8  -1  757  290           
12 20.08.17 250 (З) 10 км    10/10 600 м 
[Sc]
+14.1 +12.8 92 +19  1009.5  -0.3  757  287           
15 20.08.17 200 (Ю) 10 км    9/9 300 м кучево-дожд. 
[Cb cap]
+14.7 +13.8 94 +20  1007.7  -1.8  755  286    +14.9       
18 20.08.17 210 (ЮЗ) 8{11}  10 км  слаб. ливневой дождь  10/10 300 м кучево-дожд. 
[Cb cap]
+15.6 +15.3 98 +24  1004.7  -3  753  284           
21 20.08.17 250 (З) 10-12{16}  10 км  {ливн. осадки}  10/10 300 м кучево-дожд. 
[Cb cap]
+15.6 +14.7 94 +22  1002.5  -2.2  751  283           
00 21.08.17 250 (З) 8-10{15}  10 км  {ливн. осадки}  4/4 300 м 
[Sc]
+12.8 +12.2 96 +15  1003.9  1.4  752  287           
06 21.08.17 260 (З) 9-12{16}  20000 м    8/3 600 м средняя 
[Sc|Ac trans]
+13.4 +11.5 88 +15  1006.6  2.1  754  288           
09 21.08.17 250 (З) 9-12{12}  20000 м    8/5 600 м средняя 
[Sc|Ac trans]
+14.9 +12.5 86 +18  1008.1  1.5  755  286           
12 21.08.17 260 (З) 9-13{14}  20000 м    8/5 1000 м верхняя 
[Sc|Cs]
+17.5 +13.1 75 +22  1008.5  0.4  756  284           
15 21.08.17 260 (З) 8-11{13}  20000 м    6/4 1000 м верхняя 
[Sc|Cs]
+14.8 +12.4 86 +18  1009.7  1.2  757  287    +17.9       
18 21.08.17 250 (З) 7{11}  10 км    8/8 1000 м 
[Sc]
+13.6 +11.7 88 +15  1010.8  1.1  758  289           
21 21.08.17 270 (З) 7{10}  10 км    8/8 300 м 
[Sc]
+13 +11.9 93 +16  1011.7  0.9  758  289           
00 22.08.17 270 (З) 9-10{10}  10 км    10/10 300 м 
[Sc]
+11.5 +10.5 94 +12  1013.8  2.1  760  292           
06 22.08.17 260 (З) 10 км    10/10 300 м 
[Sc]
+11.5 +10.3 92 +12  1016.3  1.1  762  293           
09 22.08.17 350 (С) 10 км    10/10 300 м 
[Sc]
+12.2 +11.3 94 +16  1016.2  -0.1  762  292           
15 22.08.17 060 (СВ) 10 км    10/10 300 м 
[Sc]
+8.8 +8 95 +7  1016.7  0.1  762  296    +12.3       
18 22.08.17 060 (СВ) 10 км    10/10 300 м 
[Sc]
+8 +7.4 96 +7  1017.2  0.5  762  297           
21 22.08.17 070 (В) 10 км    10/10 300 м 
[Sc]
+8.5 +6.8 89 +7  1017.1  -0.1  762  297           
00 23.08.17 030 (СВ) 10 км    10/10 300 м 
[Sc]
+8.2 +6.7 90 +8  1017.6  0.5  763  297           
06 23.08.17 360 (С) 10 км  {ливн. осадки}  10/10 300 м 
[Sc]
+7.9 +5.2 83 +7  1018.8  0.3  764  298           
09 23.08.17 030 (СВ) 10 км    10/10 300 м 
[Sc]
+8.3 +4.7 78 +8  1019.8  764  298           
Время (UTC), дата Ветер
(°,м/с) 
Видим.   Явления Облачность Т
(°С)
Тd
(°С)
f(%) Тe
(°С)
Pmin
(гПа)
dP
(гПа)
Po
(мм)
O2
(г/м3)
Тmin Tmax R s Состояние
почвы

Для получения пояснительной информации подведите курсор к названию столбца.

ПОГОДА Мыс Шведский - архив

Всё, что Вы хотите узнать о погоде Мыс Шведский - удобно и подробно!

Выберите нужную дату (начиная с 1 января 2015* года) и нажмите кнопку "Найти".
Будут отображены архивные сводки погоды по пункту Мыс Шведский, начиная с указанной даты.


Отображать данные в формате CSV (для использования в таблицах Excel)


Внимание! Наш архив погоды предназначен исключительно для личного некоммерческого использования в познавательных целях. Если Вам необходимы официальные справки о состоянии погоды (для производственных, юридических, коммерческих и т.п. целей), обращайтесь в органы Росгидромета.

*Примечание: данная дата относится к архиву по метеостанциям СССР (Россия, СНГ, Балтия).
Архив по метеостанциям Зарубежной Европы и Азии (кроме Китая) хранится 10 дней, по другим регионам земного шара (Китай, Африка, Америка, Австралия, Океания) - 1 день.

Мыс Шведский - район местоположения метеостанции


Название, широта, долгота, высота метеостанции:
Мыс Шведский 68.6°ш. 56.6°д. 4 м над ур. моря [Российская Федерация]

Дополнительная информация

В oтличие oт бoльшинства пoгoдных сайтoв мы публикуем пoдрoбную метеoинфoрмацию в детальнoм прoфессиoнальнoм фoрмате.

Характеристики температуры и влажнoсти вoздуха измеряются на высoте 2 м в тени вдали oт зданий и деревьев.
Скoрoсть ветра измеряется на высoте 10 м (на урoвне рoста челoвека скoрoсть ветра ниже в 1.5-2 раза). Если метеoстанция нахoдится в гoрoде или в лесу, тo скoрoсть ветра занижена на 2-4 м/с пo сравнению с oткрытым местoм. Скoрoсть ветра над акватoриями крупных рек и oзёр, а также на вершинах хoлмoв на 2-5 м/с выше, чем в oбычных услoвиях.
Атмoсфернoе давление в разных тoчках местнoсти мoжет значительнo oтличаться oт давления на метеoстанции, в зависимoсти oт услoвий рельефа (при пoдъёме на 10 м давление пoнижается примернo на 1 мм рт.ст.).